When you browse on this site, cookies collect data to enhance your experience and personalize the content and advertising you see.
Visit our Privacy Policy to learn more. By continuing to use the site, you agree to this use of cookies and data.
  • En España
  • Lista de países
  • Para 7 días
  • Temperatura del agua
  • Mapa Satelital
  • El tiempo en el mapa
  • Informadores
  • user-avatar
    Iniciar sesión

    Tiempo cada hora Tel Aviv

    Hoy, 17 Julio, Miércoles

    Tiempo Temperatura Precipitaciones Viento Presión Humedad
    00:00 +27°C° 0 mm 2 mps 754 mmHg 58%
    01:00 +28°C° 0 mm 2 mps 753 mmHg 51%
    02:00 +28°C° 0 mm 2 mps 753 mmHg 45%
    03:00 +29°C° 0 mm 2 mps 753 mmHg 42%
    04:00 +29°C° 0 mm 3 mps 753 mmHg 38%
    05:00 +30°C° 0 mm 3 mps 752 mmHg 35%
    06:00 +34°C° 0 mm 3 mps 752 mmHg 32%
    07:00 +36°C° 0 mm 4 mps 752 mmHg 30%
    08:00 +40°C° 0 mm 5 mps 752 mmHg 26%
    09:00 +40°C° 0 mm 6 mps 752 mmHg 27%
    10:00 +40°C° 0 mm 7 mps 752 mmHg 29%
    11:00 +40°C° 0 mm 9 mps 752 mmHg 30%
    12:00 +39°C° 0 mm 8 mps 752 mmHg 38%
    13:00 +38°C° 0 mm 8 mps 752 mmHg 47%
    14:00 +35°C° 0 mm 7 mps 752 mmHg 56%
    15:00 +35°C° 0 mm 6 mps 752 mmHg 56%
    16:00 +34°C° 0 mm 5 mps 753 mmHg 56%
    17:00 +34°C° 0 mm 4 mps 753 mmHg 56%
    18:00 +31°C° 0 mm 3 mps 753 mmHg 64%
    19:00 +30°C° 0 mm 3 mps 754 mmHg 72%
    20:00 +29°C° 0 mm 2 mps 754 mmHg 80%
    21:00 +28°C° 0 mm 2 mps 754 mmHg 81%
    22:00 +28°C° 0 mm 1 mps 754 mmHg 82%
    23:00 +25°C° 0 mm 0 mps 755 mmHg 83%

    Mañana, 18 Julio, Jueves

    Tiempo Temperatura Precipitaciones Viento Presión Humedad
    00:00 +27°C° 0 mm 1 mps 754 mmHg 83%
    01:00 +27°C° 0 mm 2 mps 754 mmHg 84%
    02:00 +27°C° 0 mm 3 mps 754 mmHg 84%
    03:00 +27°C° 0 mm 3 mps 754 mmHg 85%
    04:00 +27°C° 0 mm 3 mps 754 mmHg 85%
    05:00 +27°C° 0 mm 4 mps 755 mmHg 86%
    06:00 +28°C° 0 mm 4 mps 755 mmHg 78%
    07:00 +29°C° 0 mm 4 mps 755 mmHg 70%
    08:00 +32°C° 0 mm 4 mps 755 mmHg 62%
    09:00 +32°C° 0 mm 5 mps 755 mmHg 60%
    10:00 +33°C° 0 mm 5 mps 755 mmHg 58%
    11:00 +34°C° 0 mm 6 mps 756 mmHg 56%
    12:00 +33°C° 0 mm 6 mps 755 mmHg 57%
    13:00 +33°C° 0 mm 6 mps 755 mmHg 57%
    14:00 +33°C° 0 mm 6 mps 755 mmHg 58%
    15:00 +32°C° 0 mm 6 mps 755 mmHg 60%
    16:00 +32°C° 0 mm 6 mps 755 mmHg 61%
    17:00 +30°C° 0 mm 6 mps 755 mmHg 63%
    18:00 +29°C° 0 mm 5 mps 756 mmHg 68%
    19:00 +28°C° 0 mm 4 mps 756 mmHg 72%
    20:00 +27°C° 0 mm 3 mps 757 mmHg 77%
    21:00 +26°C° 0 mm 2 mps 757 mmHg 78%
    22:00 +26°C° 0 mm 2 mps 757 mmHg 79%
    23:00 +26°C° 0 mm 1 mps 757 mmHg 80%

    Pasado mañana, 19 Julio, Viernes

    Tiempo Temperatura Precipitaciones Viento Presión Humedad
    00:00 +26°C° 0 mm 1 mps 757 mmHg 80%
    01:00 +25°C° 0 mm 1 mps 757 mmHg 80%
    02:00 +25°C° 0 mm 1 mps 757 mmHg 80%
    03:00 +25°C° 0 mm 1 mps 757 mmHg 81%
    04:00 +25°C° 0 mm 1 mps 757 mmHg 81%
    05:00 +25°C° 0 mm 2 mps 757 mmHg 82%
    06:00 +26°C° 0 mm 1 mps 757 mmHg 77%
    07:00 +27°C° 0 mm 1 mps 758 mmHg 72%
    08:00 +28°C° 0 mm 1 mps 758 mmHg 67%
    09:00 +29°C° 0 mm 2 mps 758 mmHg 63%
    10:00 +30°C° 0 mm 3 mps 758 mmHg 58%
    11:00 +32°C° 0 mm 4 mps 758 mmHg 54%
    12:00 +32°C° 0 mm 4 mps 757 mmHg 54%
    13:00 +33°C° 0 mm 5 mps 757 mmHg 54%
    14:00 +33°C° 0 mm 5 mps 757 mmHg 54%
    15:00 +32°C° 0 mm 5 mps 757 mmHg 56%
    16:00 +30°C° 0 mm 5 mps 757 mmHg 59%
    17:00 +30°C° 0 mm 6 mps 756 mmHg 61%
    18:00 +29°C° 0 mm 5 mps 757 mmHg 66%
    19:00 +28°C° 0 mm 4 mps 757 mmHg 71%
    20:00 +26°C° 0 mm 3 mps 757 mmHg 76%
    21:00 +26°C° 0 mm 2 mps 757 mmHg 77%
    22:00 +25°C° 0 mm 1 mps 757 mmHg 78%
    23:00 +25°C° 0 mm 1 mps 757 mmHg 79%

    20 Julio, Sábado

    Tiempo Temperatura Precipitaciones Viento Presión Humedad
    00:00 +25°C° 0 mm 1 mps 757 mmHg 79%
    01:00 +24°C° 0 mm 1 mps 757 mmHg 80%
    02:00 +24°C° 0 mm 1 mps 757 mmHg 80%
    03:00 +24°C° 0 mm 1 mps 757 mmHg 81%
    04:00 +24°C° 0 mm 1 mps 757 mmHg 81%
    05:00 +24°C° 0 mm 2 mps 757 mmHg 82%
    06:00 +25°C° 0 mm 2 mps 757 mmHg 77%
    07:00 +27°C° 0 mm 2 mps 757 mmHg 72%
    08:00 +28°C° 0 mm 2 mps 758 mmHg 67%
    09:00 +29°C° 0 mm 3 mps 757 mmHg 63%
    10:00 +30°C° 0 mm 3 mps 757 mmHg 59%
    11:00 +32°C° 0 mm 4 mps 757 mmHg 54%
    12:00 +32°C° 0 mm 4 mps 757 mmHg 54%
    13:00 +32°C° 0 mm 5 mps 757 mmHg 54%
    14:00 +32°C° 0 mm 5 mps 757 mmHg 54%
    15:00 +32°C° 0 mm 5 mps 756 mmHg 57%
    16:00 +30°C° 0 mm 5 mps 756 mmHg 59%
    17:00 +30°C° 0 mm 4 mps 756 mmHg 62%
    18:00 +29°C° 0 mm 4 mps 757 mmHg 68%
    19:00 +28°C° 0 mm 3 mps 757 mmHg 73%
    20:00 +26°C° 0 mm 2 mps 757 mmHg 79%
    21:00 +26°C° 0 mm 2 mps 757 mmHg 79%
    22:00 +26°C° 0 mm 1 mps 757 mmHg 80%
    23:00 +25°C° 0 mm 1 mps 757 mmHg 80%

    21 Julio, Domingo

    Tiempo Temperatura Precipitaciones Viento Presión Humedad
    00:00 +25°C° 0 mm 1 mps 757 mmHg 81%
    01:00 +25°C° 0 mm 1 mps 757 mmHg 81%
    02:00 +25°C° 0 mm 1 mps 756 mmHg 81%
    03:00 +25°C° 0 mm 1 mps 756 mmHg 82%
    04:00 +24°C° 0 mm 1 mps 757 mmHg 83%
    05:00 +24°C° 0 mm 2 mps 757 mmHg 84%
    06:00 +26°C° 0 mm 2 mps 757 mmHg 79%
    07:00 +27°C° 0 mm 2 mps 757 mmHg 73%
    08:00 +28°C° 0 mm 2 mps 757 mmHg 67%
    09:00 +29°C° 0 mm 2 mps 757 mmHg 63%
    10:00 +30°C° 0 mm 3 mps 757 mmHg 58%
    11:00 +33°C° 0 mm 3 mps 756 mmHg 53%
    12:00 +33°C° 0 mm 4 mps 756 mmHg 53%
    13:00 +33°C° 0 mm 5 mps 756 mmHg 54%
    14:00 +33°C° 0 mm 5 mps 755 mmHg 54%
    15:00 +32°C° 0 mm 5 mps 755 mmHg 57%
    16:00 +32°C° 0 mm 5 mps 755 mmHg 60%
    17:00 +30°C° 0 mm 5 mps 755 mmHg 63%
    18:00 +29°C° 0 mm 5 mps 755 mmHg 69%
    19:00 +28°C° 0 mm 4 mps 755 mmHg 75%
    20:00 +27°C° 0 mm 3 mps 756 mmHg 81%
    21:00 +27°C° 0 mm 2 mps 756 mmHg 82%
    22:00 +26°C° 0 mm 2 mps 756 mmHg 82%
    23:00 +26°C° 0 mm 1 mps 756 mmHg 82%

    22 Julio, Lunes

    Tiempo Temperatura Precipitaciones Viento Presión Humedad
    00:00 +26°C° 0 mm 1 mps 755 mmHg 83%
    01:00 +26°C° 0 mm 1 mps 755 mmHg 83%
    02:00 +25°C° 0 mm 1 mps 755 mmHg 84%
    03:00 +25°C° 0 mm 1 mps 755 mmHg 84%
    04:00 +25°C° 0 mm 1 mps 755 mmHg 84%
    05:00 +25°C° 0 mm 1 mps 755 mmHg 85%
    06:00 +26°C° 0 mm 1 mps 755 mmHg 79%
    07:00 +28°C° 0 mm 1 mps 755 mmHg 74%
    08:00 +29°C° 0 mm 1 mps 755 mmHg 68%
    09:00 +30°C° 0 mm 2 mps 755 mmHg 64%
    10:00 +31°C° 0 mm 3 mps 755 mmHg 60%
    11:00 +33°C° 0 mm 4 mps 755 mmHg 56%
    12:00 +34°C° 0 mm 5 mps 755 mmHg 57%
    13:00 +34°C° 0 mm 5 mps 754 mmHg 58%
    14:00 +34°C° 0 mm 6 mps 754 mmHg 59%
    15:00 +33°C° 0 mm 6 mps 754 mmHg 61%
    16:00 +33°C° 0 mm 5 mps 754 mmHg 63%
    17:00 +32°C° 0 mm 5 mps 753 mmHg 66%
    18:00 +30°C° 0 mm 4 mps 754 mmHg 71%
    19:00 +29°C° 0 mm 3 mps 754 mmHg 77%
    20:00 +28°C° 0 mm 2 mps 755 mmHg 83%
    21:00 +27°C° 0 mm 2 mps 754 mmHg 83%
    22:00 +27°C° 0 mm 1 mps 754 mmHg 83%
    23:00 +27°C° 0 mm 1 mps 754 mmHg 83%
    Mostrar más